EZY5488 EGKK-LEMG

Flight info

Callsign EZY5488
Flight time N/A
Altitude 37000
Route IMVUR N63 SAM M195 MARUK N621 LELNA DCT NOVAN DCT DELOG DCT CRISA N864 VULPE
Aircraft A20N/M-SDE2E3FGHIJ1RWXYZ/LB1

Departure

Time 2026-05-07 21:52
Airport London Gatwick Airport (EGKK)

Arrival

Time N/A
Airport Málaga-Costa del Sol Airport (LEMG)
Time Latitude Longitude Altitude Speed Heading
2026-05-07 21:20 51.15661 -0.17700 213 ft 0 kts 168°
2026-05-07 21:42 51.15662 -0.17700 177 ft 1 kts 168°
2026-05-07 21:42 51.15686 -0.17708 217 ft 4 kts 168°
2026-05-07 21:42 51.15712 -0.17717 214 ft 4 kts 177°
2026-05-07 21:42 51.15733 -0.17709 206 ft 4 kts 249°
2026-05-07 21:43 51.15739 -0.17676 207 ft 4 kts 257°
2026-05-07 21:43 51.15745 -0.17634 209 ft 4 kts 256°
2026-05-07 21:43 51.15749 -0.17610 216 ft 0 kts 255°
2026-05-07 21:46 51.15739 -0.17670 208 ft 11 kts 257°
2026-05-07 21:46 51.15719 -0.17818 213 ft 16 kts 258°
2026-05-07 21:46 51.15694 -0.18004 207 ft 19 kts 257°
2026-05-07 21:46 51.15664 -0.18217 213 ft 21 kts 258°
2026-05-07 21:47 51.15633 -0.18454 215 ft 23 kts 257°
2026-05-07 21:47 51.15596 -0.18709 211 ft 25 kts 258°
2026-05-07 21:47 51.15511 -0.18814 207 ft 15 kts 169°
2026-05-07 21:47 51.15404 -0.18786 204 ft 17 kts 166°
2026-05-07 21:48 51.15284 -0.18740 208 ft 19 kts 166°
2026-05-07 21:48 51.15157 -0.18708 211 ft 17 kts 200°
2026-05-07 21:48 51.15110 -0.18885 211 ft 19 kts 257°
2026-05-07 21:48 51.15080 -0.19101 207 ft 21 kts 258°
2026-05-07 21:49 51.15047 -0.19340 207 ft 23 kts 257°
2026-05-07 21:49 51.15012 -0.19599 209 ft 25 kts 258°
2026-05-07 21:49 51.14974 -0.19875 205 ft 26 kts 257°
2026-05-07 21:49 51.14932 -0.20168 206 ft 28 kts 257°
2026-05-07 21:50 51.14888 -0.20477 207 ft 29 kts 257°
2026-05-07 21:50 51.14845 -0.20800 204 ft 30 kts 258°
2026-05-07 21:50 51.14800 -0.21119 208 ft 29 kts 256°
2026-05-07 21:50 51.14751 -0.21380 212 ft 17 kts 234°
2026-05-07 21:51 51.14661 -0.21363 213 ft 13 kts 136°
2026-05-07 21:51 51.14629 -0.21330 207 ft 0 kts 158°
2026-05-07 21:51 51.14614 -0.21322 212 ft 10 kts 162°
2026-05-07 21:51 51.14524 -0.21234 217 ft 19 kts 120°
2026-05-07 21:52 51.14542 -0.21017 215 ft 33 kts 78°
2026-05-07 21:52 51.14657 -0.20174 216 ft 119 kts 77°
2026-05-07 21:52 51.14887 -0.18567 384 ft 168 kts 77°
2026-05-07 21:52 51.15153 -0.16725 1289 ft 168 kts 79°
2026-05-07 21:53 51.15401 -0.14892 2080 ft 178 kts 80°
2026-05-07 21:53 51.15668 -0.12859 2623 ft 199 kts 79°
2026-05-07 21:53 51.15976 -0.10553 2762 ft 221 kts 79°
2026-05-07 21:53 51.16327 -0.08125 3470 ft 226 kts 72°
2026-05-07 21:54 51.17192 -0.06068 4514 ft 229 kts 40°
2026-05-07 21:54 51.18646 -0.04994 5453 ft 235 kts
2026-05-07 21:54 51.20272 -0.05206 6449 ft 236 kts 345°
2026-05-07 21:54 51.21701 -0.06433 7369 ft 237 kts 314°
2026-05-07 21:55 51.22554 -0.08616 8267 ft 237 kts 285°
2026-05-07 21:55 51.22652 -0.11199 9252 ft 235 kts 259°
2026-05-07 21:55 51.22325 -0.13800 10015 ft 248 kts 258°
2026-05-07 21:55 51.21981 -0.16614 10441 ft 269 kts 259°
2026-05-07 21:56 51.21629 -0.19599 11161 ft 277 kts 259°
2026-05-07 21:56 51.21277 -0.22653 11981 ft 283 kts 258°
2026-05-07 21:56 51.20918 -0.25775 12800 ft 288 kts 258°
2026-05-07 21:56 51.20554 -0.28947 13624 ft 294 kts 258°
2026-05-07 21:57 51.20180 -0.32190 14377 ft 298 kts 258°
2026-05-07 21:57 51.19801 -0.35451 15180 ft 300 kts 257°
2026-05-07 21:57 51.19389 -0.38720 15953 ft 303 kts 257°
2026-05-07 21:57 51.19100 -0.40906 16458 ft 305 kts 256°
2026-05-07 21:58 51.18658 -0.44227 17221 ft 307 kts 256°
2026-05-07 21:58 51.18212 -0.47576 17978 ft 310 kts 257°
2026-05-07 21:58 51.17763 -0.50967 18670 ft 314 kts 257°
2026-05-07 21:58 51.17162 -0.54317 19252 ft 318 kts 245°
2026-05-07 21:59 51.15907 -0.57315 19437 ft 335 kts 225°
2026-05-07 21:59 51.14122 -0.59873 19602 ft 354 kts 220°
2026-05-07 21:59 51.12178 -0.62416 19844 ft 368 kts 219°
2026-05-07 21:59 51.10208 -0.64966 20430 ft 371 kts 219°
2026-05-07 22:00 51.08207 -0.67586 21073 ft 374 kts 220°
2026-05-07 22:00 51.06205 -0.70239 21691 ft 377 kts 220°
2026-05-07 22:00 51.04188 -0.72931 22305 ft 380 kts 220°